Regional Weather Roundup
Issued by NWS

Home | Current Version | Previous Version | Graphics & Text | Print | Product List | Glossary Off
Versions: 1 2 3 4 5 6 7 8 9 10 11 12 13 14 15 16 17 18 19 20 21 22 23 24 25 26 27 28 29 30 31 32 33 34 35 36 37 38 39 40 41 42 43 44 45 46 47 48 49 50

000
ASUS43 KDMX 231906
RWRIA

WEATHER ROUNDUP FOR IOWA
NATIONAL WEATHER SERVICE DES MOINES IA
100 PM CST MON JAN 23 2017

NOTE: "FAIR" INDICATES FEW OR NO CLOUDS BELOW 12,000 FEET WITH NO
SIGNIFICANT WEATHER AND/OR OBSTRUCTIONS TO VISIBILITY.

* - THESE STATIONS ARE NOT NWS STATIONS...THUS NOT UNDER NWS
QUALITY CONTROL.  THEY ALSO DO NOT REPORT WEATHER SUCH
AS PRECIPITATION OR FOG.

IAZ001>003-012>014-020>022-031>034-043>046-232000-
   NORTHWEST IOWA

CITY           SKY/WX    TMP DP  RH WIND       PRES   REMARKS
CARROLL *      CLOUDY    34  32  93 NW5       29.85F WCI  30
CHEROKEE *     CLOUDY    32  30  93 W3        29.85F
DENISON *      CLOUDY    32  28  86 CALM      29.84F
LE MARS *      CLOUDY    32  28  86 CALM      29.85F
ORANGE CITY *  CLOUDY    30  28  93 CALM      29.83F
SHELDON *      CLOUDY    30  30 100 W5        29.83F WCI  25
SIOUX CITY     CLOUDY    34  28  79 CALM      29.84F
SPENCER          N/A     32  29  88 W8        29.85  WCI  25
STORM LAKE *   CLOUDY    32  30  93 W7        29.84F WCI  26
$$

IAZ055>058-069>071-079>083-090>094-232000-
   SOUTHWEST IOWA

CITY           SKY/WX    TMP DP  RH WIND       PRES   REMARKS
ATLANTIC *     CLOUDY    32  30  93 W5        29.87F WCI  27
AUDUBON *      CLOUDY    34  28  80 N3        29.86F
CLARINDA *     CLOUDY    34  30  86 N5        29.89F WCI  30
COUNCIL BLFS * CLOUDY    34  32  93 NE6       29.85F WCI  29
CRESTON *      CLOUDY    32  30  93 N6        29.87F WCI  26
HARLAN  *      CLOUDY    32  32 100 N5        29.89F WCI  27
LAMONI         CLOUDY    32  29  88 VRB6      29.86F WCI  26
RED OAK *      CLOUDY    34  30  86 CALM      29.87F
SHENANDOAH *   CLOUDY    34  30  86 CALM      29.88F
$$

IAZ047>049-059>061-072>074-084-232000-
   CENTRAL IOWA

CITY           SKY/WX    TMP DP  RH WIND       PRES   REMARKS
AMES           CLOUDY    33  31  92 N6        29.85F WCI  28
ANKENY *       CLOUDY    32  30  93 NW5       29.88F WCI  27
BOONE *        CLOUDY    32  32 100 N7        29.84F WCI  26
CHARITON *     CLOUDY    32  30  93 NW7       29.86F WCI  26
DES MOINES     CLOUDY    34  29  82 N6        29.88S WCI  29
GRINNELL*      CLOUDY    32  31  96 NW6       29.85F FOG     WCI  26
KNOXVILLE *    CLOUDY    32  30  93 N6        29.85F FOG     WCI  26
MARSHALLTOWN   CLOUDY    32  31  96 NW7       29.84F WCI  26
NEWTON *       CLOUDY    32  30  93 NW9       29.85F WCI  24
PELLA *        CLOUDY    33  31  92 NW6       29.87F FOG     WCI  27
PERRY *        CLOUDY    34  31  88 CALM      29.86F
$$

IAZ004>006-015-016-023>025-035-036-232000-
   NORTH CENTRAL IOWA

CITY           SKY/WX    TMP DP  RH WIND       PRES   REMARKS
ALGONA *       CLOUDY    34  30  86 CALM      29.84S
CLARION *      CLOUDY    34  32  93 NW6       29.84F WCI  29
ESTHERVILLE    CLOUDY    31  30  96 CALM      29.82F
FORT DODGE *   CLOUDY    34  27  75 NW6       29.84F WCI  29
MASON CITY     CLOUDY    33  28  81 NW7       29.84F WCI  27
FOREST CITY *  CLOUDY    32  32 100 N6        29.82F WCI  26
WEBSTER CITY * CLOUDY    34 N/A N/A CALM      29.82F
IOWA FALLS *   CLOUDY    33  31  90 NW3       29.84F
$$

IAZ007>011-017>019-026>030-037>042-050>054-066-232000-
   NORTHEAST IOWA

CITY           SKY/WX    TMP DP  RH WIND       PRES   REMARKS
CEDAR RAPIDS   CLOUDY    35  32  88 W9        29.83F WCI  28
CHARLES CITY * CLOUDY    34  32  93 W7        29.83F WCI  28
CLINTON *      CLOUDY    39  36  89 NW12      29.81F WCI  32
DECORAH *      CLOUDY    36  32  87 VRB6      29.81F WCI  31
DUBUQUE        CLOUDY    37  34  89 NW8       29.80F WCI  31
MONTICELLO *   CLOUDY    36  34  93 W9        29.82F WCI  29
OELWEIN *      CLOUDY    34  32  93 W12       29.83F WCI  25
WATERLOO       CLOUDY    34  29  82 W6        29.84F WCI  29
$$

IAZ064-065-067-068-078-232000-
   EAST CENTRAL IOWA

CITY           SKY/WX    TMP DP  RH WIND       PRES   REMARKS
DAVENPORT      CLOUDY    39  35  86 W14       29.81F WCI  31
IOWA CITY      CLOUDY    39  31  72 W13       29.86F WCI  31
MUSCATINE *    CLOUDY    39  34  81 W13       29.84F WCI  32
QUAD CITIES    CLOUDY    41  35  79 W12       29.81F
$$

IAZ062-063-075>077-085>089-095>099-232000-
   SOUTHEAST IOWA

CITY           SKY/WX    TMP DP  RH WIND       PRES   REMARKS
BURLINGTON     CLOUDY    39  35  86 NW7       29.83F WCI  34
FAIRFIELD *    CLOUDY    36  32  87 W10       29.85F WCI  28
FORT MADISON * CLOUDY    37  36  93 W7        29.84F WCI  32
KEOKUK *       CLOUDY    39 N/A N/A W7        29.84F WCI  34
OSKALOOSA *    CLOUDY    32  30  92 NW7       29.86F WCI  26
CENTERVILLE *  CLOUDY    32  32 100 W5        29.87F WCI  27
OTTUMWA        CLOUDY    34  28  79 NW8       29.86F WCI  27
WASHINGTON *   CLOUDY    36  34  93 NW12      29.86F WCI  27
$$

ABBREVIATIONS USED IN REMARKS
   TC - TEMPERATURES IN CELSIUS
  WCI - WIND CHILL INDEX
   HX - HEAT INDEX
  VSB - VISIBILITY
$$





USA.gov is the U.S. government's official web portal to all federal, state and local government web resources and services.